Van, Turkey

3:01 PM +03 on December 13, 2017 (GMT +0300)
Van

Weather History for LTCI - January, 2014

Change the Weather History Date:

Monday, January 13, 2014

  Actual Average Record
Temperature  
Mean Temperature 26 °F -  
Max Temperature 37 °F 35 °F 44 °F (2003)
Min Temperature 14 °F 17 °F 6 °F (2009)
Degree Days  
Heating Degree Days 40    
Moisture  
Dew Point 21 °F    
Average Humidity 72    
Maximum Humidity 100    
Minimum Humidity 35    
Precipitation  
Precipitation 0.00 in 0.05 in - ()
Sea Level Pressure  
Sea Level Pressure 30.07 in    
Wind  
Wind Speed 3 mph ()    
Max Wind Speed 7 mph    
Max Gust Speed -    
Visibility 4.1 miles    
Events Snow    
Averages and records for this station are not official NWS values.
T = Trace of Precipitation, MM = Missing Value Source: Averaged Metar Reports

Daily Weather History Graph

Daily Weather History Graph

Search for Another Location

Airport or City:

Trip Planner

Search our weather history database for the weather conditions in past years. The results will help you decide how hot, cold, wet, or windy it might be!

Date:

Astronomy

Jan. 13, 2014 Rise Set
Actual Time 6:23 AM EET 4:07 PM EET
Civil Twilight 5:54 AM EET 4:36 PM EET
Nautical Twilight 5:21 AM EET 5:09 PM EET
Astronomical Twilight 4:49 AM EET 5:41 PM EET
Moon 2:04 PM EET 3:54 AM EET
Length of Visible Light 10h 42m
Length of Day
9h 44m
Waxing Gibbous, 93% of the Moon is Illuminated
Jan 13
Waxing Gibbous
Jan 16
Full
Jan 24
Last Quarter
Jan 30
New
Feb 6
First Quarter

Hourly Weather History & Observations

Time (EET) Temp. Windchill Dew Point Humidity Pressure Visibility Wind Dir Wind Speed Gust Speed Precip Events Conditions
12:50 AM 14.0 °F 6.5 °F 14.0 °F 100% 30.15 in 3.7 mi ENE 4.6 mph - N/A   Partly Cloudy
1:50 AM 15.8 °F 10.2 °F 12.2 °F 86% 30.15 in 3.7 mi East 3.5 mph - N/A   Partly Cloudy
2:00 AM 15 °F - 15 °F 97%  in 4 mi East 3.5 mph - -   Mist
2:50 AM 17.6 °F 10.7 °F 15.8 °F 93% 30.15 in 3.7 mi ENE 4.6 mph - N/A   Scattered Clouds
3:50 AM 19.4 °F - 15.8 °F 86% 30.12 in 4.3 mi ENE 2.3 mph - N/A   Scattered Clouds
4:50 AM 14.0 °F - 12.2 °F 93% 30.12 in 3.7 mi Variable 2.3 mph - N/A   Scattered Clouds
5:00 AM 15 °F - 15 °F 98%  in 4 mi ESE 2.3 mph - -   Mist
5:50 AM 15.8 °F - 14.0 °F 93% 30.12 in 3.7 mi ESE 2.3 mph - N/A   Scattered Clouds
6:50 AM 17.6 °F 10.7 °F 15.8 °F 93% 30.15 in 2.5 mi East 4.6 mph - N/A   Mostly Cloudy
7:50 AM 26.6 °F - 21.2 °F 80% 30.15 in 3.7 mi Variable 1.2 mph - N/A   Mostly Cloudy
8:00 AM 26 °F - 22 °F 79%  in 4 mi NW 1.2 mph - -   Mist
8:50 AM 32.0 °F 27.5 °F 23.0 °F 69% 30.15 in 4.3 mi SE 4.6 mph - N/A   Mostly Cloudy
9:50 AM 35.6 °F 29.9 °F 19.4 °F 52% 30.12 in 4.3 mi SE 6.9 mph - N/A   Mostly Cloudy
10:50 AM 37.4 °F 34.9 °F 19.4 °F 48% 30.09 in 4.3 mi South 3.5 mph - N/A   Mostly Cloudy
11:00 AM 37 °F - 19 °F 35%  in 4 mi South 3.5 mph - -   Haze
11:50 AM 35.6 °F 30.7 °F 21.2 °F 56% 30.09 in 4.3 mi NW 5.8 mph - N/A   Mostly Cloudy
12:50 PM 35.6 °F - 23.0 °F 60% 30.06 in 4.3 mi Variable 2.3 mph - N/A   Mostly Cloudy
1:50 PM 35.6 °F - 23.0 °F 60% 30.06 in 3.7 mi Variable 2.3 mph - N/A Snow Light Snow
2:00 PM 36 °F - 22 °F 43%  in 4 mi South 2.3 mph - - Snow Light Snow
2:50 PM 35.6 °F 29.9 °F 24.8 °F 65% 30.01 in 4.3 mi SE 6.9 mph - N/A   Mostly Cloudy
3:50 PM 35.6 °F 32.8 °F 24.8 °F 65% 29.98 in 4.3 mi South 3.5 mph - N/A   Mostly Cloudy
4:50 PM 33.8 °F 30.8 °F 26.6 °F 75% 30.01 in 2.5 mi ENE 3.5 mph - N/A   Mostly Cloudy
5:00 PM 33 °F - 26 °F 65%  in 2 mi ENE 3.5 mph - -   Mist
5:50 PM 33.8 °F 29.6 °F 24.8 °F 70% 30.01 in 3.7 mi East 4.6 mph - N/A   Mostly Cloudy
6:50 PM 35.6 °F 32.8 °F 26.6 °F 70% 29.98 in 4.3 mi ESE 3.5 mph - N/A   Mostly Cloudy
7:50 PM 32.0 °F 26.4 °F 24.8 °F 75% 29.98 in 4.3 mi SSE 5.8 mph - N/A   Mostly Cloudy
8:00 PM 32 °F - 24 °F 62%  in 4 mi SE 5.8 mph - -   Mist
8:50 PM 33.8 °F 28.6 °F 24.8 °F 70% 29.98 in 4.3 mi SE 5.8 mph - N/A   Mostly Cloudy
9:50 PM 33.8 °F 28.6 °F 24.8 °F 70% 29.98 in 5.0 mi SE 5.8 mph - N/A   Mostly Cloudy
10:50 PM 35.6 °F 30.7 °F 24.8 °F 65% 30.01 in 6.2 mi SE 5.8 mph - N/A   Mostly Cloudy
11:00 PM 35 °F - 24 °F 53%  in 6 mi SE 5.8 mph - -   Partly Cloudy
11:50 PM 35.6 °F 32.8 °F 26.6 °F 70% 30.01 in 6.2 mi SW 3.5 mph - N/A   Mostly Cloudy